Location: Bergnerzell
(49.1816°N, 10.2565°E)
Time: 04:06:13
(UTC+00:00)

Daily predictions for brighter satellites

Satellite Brightness Start Highest point End
(mag) Time Altitude Azimuth Time Altitude Azimuth Time Altitude Azimuth
Cosmos 2228 Rocket 3.0 00:05:20 45° SSW 00:06:40 81° W 00:11:11 10° N
Meteor 1-21 4.3 00:04:42 34° S 00:07:15 73° E 00:12:58 10° NNE
Helios 1A Rocket 2.9 00:07:44 41° SE 00:08:58 69° ENE 00:12:50 10° N
Meteor 1-12 Rocket 4.5 00:03:26 10° NNW 00:09:13 61° W 00:11:47 33° SSW
Cosmos 2082 Rocket 2.3 00:07:01 35° S 00:09:25 69° ESE 00:15:08 10° NNE
Cosmos 1833 Rocket 3.6 00:08:10 19° WSW 00:11:52 42° NW 00:17:13 10° NNE
BREEZE-M DEB (TANK) 3.4 00:13:11 41° SW 00:13:44 44° SSW 00:21:21 10° SE
Cosmos 724 4.4 00:12:02 27° SW 00:15:24 74° NW 00:21:15 10° NE
CZ-2D R/B 4.0 00:13:25 10° NE 00:17:34 22° E 00:21:24 11° SE
Cosmos 1908 Rocket 4.2 00:15:34 10° N 00:19:54 50° ENE 00:22:20 23° SE
Cosmos 2360 Rocket 4.1 00:16:14 10° NNW 00:21:10 29° NE 00:26:05 10° ESE
USA 267 3.4 00:17:28 10° NE 00:24:00 76° NNW 00:30:20 11° WSW
DELTA 2 R/B (1) 4.4 00:26:16 30° S 00:26:16 30° S 00:30:47 10° ESE
Cosmos 1455 2.7 00:26:35 10° N 00:29:57 47° ENE 00:31:18 29° SE
Cosmos 1733 Rocket 3.5 00:26:40 10° NNW 00:30:47 44° W 00:31:54 36° SW
Cosmos 841 Rocket 3.7 00:26:49 10° NNW 00:32:03 69° ENE 00:36:21 15° SSE
Resurs 1-4 Rocket 3.6 00:27:55 10° NE 00:32:26 28° E 00:36:00 14° SSE
Nimbus 7 Rocket 4.5 00:27:26 10° NNE 00:33:26 78° WNW 00:36:43 29° SSW
Cosmos 1400 Rocket 3.6 00:32:16 32° WSW 00:33:27 41° WNW 00:37:15 10° N
H-2A R/B 3.9 00:33:15 10° N 00:36:43 23° WNW 00:38:59 16° W
Cosmos 2278 3.8 00:35:38 10° NNW 00:41:23 83° ENE 00:46:48 12° SSE
NOSS 3-4 (A) 4.3 00:36:39 10° NW 00:43:05 41° WSW 00:47:10 24° S
NOSS 3-4 (C) 4.3 00:36:45 10° NW 00:43:12 41° WSW 00:47:19 24° S
Cosmos 1346 Rocket 3.2 00:40:45 10° NNW 00:44:27 44° W 00:45:17 38° SW
Cosmos 676 Rocket 4.0 00:42:47 31° SSW 00:45:25 87° WNW 00:50:48 10° NNE
Cosmos 468 Rocket 4.4 00:42:33 10° NNW 00:47:37 47° WSW 00:49:48 30° SSW
SL-08 R/B 4.5 00:44:05 28° SSW 00:47:37 79° W 00:53:48 10° N
Okean 2 3.2 00:49:49 38° SSW 00:51:17 83° WNW 00:55:16 10° N
Cosmos 1954 Rocket 4.2 00:48:42 28° SW 00:51:30 66° WNW 00:56:48 10° NNE
Cosmos 1745 Rocket 4.1 00:48:37 23° S 00:52:41 74° E 00:58:57 10° NNE
CZ-2C R/B 3.2 00:47:58 10° SE 00:52:58 53° ENE 00:58:02 10° N
Meteor 1-4 Rocket 2.0 00:53:08 55° SSE 00:53:39 75° E 00:56:38 10° NNE
Cosmos 2333 Rocket 3.5 00:48:41 10° NNW 00:54:07 42° NE 00:59:32 10° ESE
Cosmos 2322 Rocket 2.8 00:53:29 10° NNW 00:59:06 59° ENE 01:04:41 10° SE
Cosmos 1300 4.4 00:56:43 10° NW 00:59:06 17° W 00:59:22 17° W
Cosmos 1703 Rocket 3.5 00:58:54 30° S 01:01:05 89° E 01:05:34 10° N
USA 234 3.7 00:56:31 16° SSE 01:01:08 38° SW 01:07:10 10° WNW
Cosmos 1953 2.4 01:00:04 10° NNW 01:03:54 54° W 01:05:20 33° SSW
SL-8 R/B 4.1 01:01:00 10° W 01:05:26 39° SSW 01:09:52 10° SE
NPP 3.9 01:01:30 10° NNE 01:06:54 66° ESE 01:10:33 21° S
Aureole 3 4.5 01:09:14 18° W 01:09:48 19° WNW 01:12:03 10° NNW
SL-27 R/B 4.4 01:08:51 12° SE 01:10:11 15° E 01:11:53 10° ENE
Cosmos 1980 Rocket 3.5 01:08:17 10° NW 01:12:29 22° W 01:14:01 19° WSW
Nadezhda 1 Rocket 4.1 01:07:21 10° NNW 01:13:42 65° W 01:18:17 19° S
Cosmos 1242 Rocket 2.8 01:13:25 27° SSE 01:14:33 43° E 01:17:19 10° NNE
Cosmos 1300 Rocket 3.5 01:12:44 10° N 01:17:05 82° ENE 01:20:24 17° SSE
ADEOS II 2.9 01:14:39 10° NNE 01:19:41 44° E 01:24:12 12° S
MOZ.5/SAFIR/RUBIN 5/SL-8 4.2 01:18:20 24° SSW 01:20:44 44° W 01:25:16 10° NNW
Cosmos 1408 3.0 01:21:25 22° SSE 01:23:00 43° E 01:25:52 10° NNE
COSMOS 2406 3.9 01:19:32 18° WSW 01:23:37 46° NW 01:29:11 10° NNE
IDEFIX/ARIANE 42P 2.6 01:19:28 10° NNE 01:24:46 88° WNW 01:28:28 20° SSW
Lacrosse 5 rocket 1.3 01:21:29 10° WNW 01:25:30 53° SW 01:29:19 10° SE
ALOS 3.9 01:23:22 10° NE 01:27:23 29° E 01:31:23 10° SSE
EXPRESS MD2 3.5 01:27:55 28° S 01:28:47 35° SE 01:32:37 10° E
Okean 1-7 4.1 01:30:04 20° WSW 01:32:16 31° WNW 01:36:09 10° N
ATLAS 2AS CENTAUR R/B 3.3 01:33:50 10° NW 01:40:42 60° NE 01:47:16 10° ESE
Cosmos 1315 Rocket 3.6 01:39:37 20° SW 01:41:42 35° WNW 01:45:20 10° N
SJ 16-02 1.7 01:39:50 16° S 01:43:07 58° ESE 01:47:22 10° NNE
CZ-2C R/B 3.4 01:37:25 10° NNE 01:43:16 79° ESE 01:48:26 13° S
SL-16 R/B 2.5 01:37:59 10° NW 01:43:25 47° WSW 01:48:48 10° S
Cosmos 1850 Rocket 4.2 01:46:14 18° SW 01:50:12 64° WNW 01:55:27 10° NNE
Cosmos 2333 4.4 01:44:48 10° NNW 01:50:33 79° ENE 01:56:19 10° SSE
Cosmos 2082 Rocket 3.7 01:49:12 10° WSW 01:54:01 27° NW 01:58:52 10° NNE
Cosmos 1709 Rocket 4.2 01:49:42 16° SSW 01:54:50 60° WNW 02:01:10 10° N
Cosmos 1741 Rocket 4.2 01:51:18 17° SW 01:55:19 62° WNW 02:00:34 10° NNE
SL-16 R/B 2.6 01:50:04 10° SSE 01:56:21 86° WSW 02:02:40 10° NNW
Cosmos 2219 Rocket 2.6 01:51:07 10° NNW 01:56:46 66° ENE 02:02:23 10° SE
Cosmos 1782 Rocket 4.4 01:52:52 10° NNW 01:56:48 33° W 01:59:39 16° SSW
Cosmos 2181 Rocket 4.0 01:51:03 10° N 01:57:28 86° W 02:03:45 10° S
CZ-2D R/B 2.3 01:52:36 10° N 01:58:02 66° WNW 02:02:42 14° SSW
Cosmos 1703 3.1 02:00:01 14° SSW 02:03:10 83° W 02:06:56 10° N
Meteor 1-28 Rocket 3.0 01:59:57 10° S 02:03:29 66° WSW 02:07:03 10° NNW
Cosmos 1455 4.1 02:02:29 10° WNW 02:04:00 12° W 02:05:04 11° WSW
AQUA 3.8 01:59:33 10° NNE 02:04:19 86° ESE 02:08:57 11° SSW
COSMOS 2428 4.2 01:59:38 10° NNW 02:05:01 42° NE 02:10:23 10° ESE
Cosmos 2360 Rocket 2.2 01:59:57 10° NW 02:05:34 62° WSW 02:11:09 10° SSE
Cosmos 968 Rocket 3.6 02:02:10 15° SW 02:06:24 68° WNW 02:11:33 10° NNE
USA 267 4.2 02:00:25 10° ENE 02:06:36 47° N 02:12:48 10° WNW
Genesis I 2.9 02:05:37 16° SW 02:08:19 86° SE 02:11:54 10° NE
Meteor 1-24 Rocket 3.9 02:02:59 10° S 02:09:01 88° ESE 02:15:04 10° NNE
RESURS DK-1 2.2 02:05:42 10° NNW 02:09:46 72° WSW 02:13:48 10° SSE
MSX 4.3 02:05:25 10° N 02:10:56 48° WNW 02:16:00 12° SW
Resurs 1-4 Rocket 2.6 02:07:24 10° N 02:12:26 47° WNW 02:17:04 12° SW
SAR-Lupe-4 3.7 02:11:17 10° NNE 02:14:52 76° ESE 02:18:26 10° S
FENGYUN 3A 3.8 02:16:37 10° N 02:21:57 64° WNW 02:27:14 10° SSW
IRAS Rocket 4.3 02:17:00 10° NNE 02:22:34 86° ESE 02:28:03 10° SSW
Geosat 4.0 02:26:21 10° SSE 02:31:22 84° WSW 02:36:26 10° NNW
CZ-2C R/B 3.7 02:29:26 10° SW 02:33:34 24° W 02:37:44 10° NW
Cosmos 2221 Rocket 3.7 02:29:38 10° S 02:34:11 88° E 02:38:45 10° N
ASTEX 1 4.2 02:30:13 10° SSE 02:35:01 54° ENE 02:39:49 10° N
SAR-Lupe-1 4.2 02:33:44 10° N 02:37:18 63° WNW 02:40:49 10° SSW
Cosmos 1825 2.2 02:34:31 10° S 02:37:54 69° E 02:41:20 10° NNE
Sich 1 Rocket 3.7 02:33:46 10° NNW 02:38:14 61° W 02:42:38 10° S
Cosmos 2333 Rocket 2.7 02:33:06 10° NW 02:38:23 40° WSW 02:43:40 10° S
Cosmos 2098 Rocket 4.2 02:33:47 10° NNW 02:38:33 40° W 02:44:06 10° SSW
Cosmos 1295 Rocket 4.5 02:34:34 10° S 02:40:42 84° W 02:46:50 10° N
Cosmos 2151 Rocket 3.8 02:36:22 10° NNW 02:40:45 53° W 02:45:04 10° S
Cosmos 2322 Rocket 3.2 02:38:09 10° NW 02:42:44 26° WSW 02:47:20 10° SSW
YAOGAN 6 4.0 02:39:43 10° NNE 02:42:47 34° E 02:45:49 10° SSE
SL-27 R/B 3.3 02:40:37 10° WSW 02:43:03 26° WNW 02:45:31 10° N
Cosmos 1455 Rocket 4.4 02:39:39 10° N 02:43:51 44° ENE 02:48:02 10° SSE
Cosmos 1892 2.4 02:40:30 10° S 02:44:01 84° W 02:47:33 10° N
Cosmos 1025 Rocket 3.9 02:41:47 10° S 02:46:00 52° E 02:50:18 10° NNE
Meteor 2-5 Rocket 4.3 02:43:51 10° SW 02:49:33 48° WNW 02:55:19 10° N
